Location: Julian California
(33.0790°N, 116.6010°W)
Time: 01:44:30
(UTC-07:00)

Atlas Centaur 2 - Pass Details

Date: 12 July 2018
Orbit: 459 x 1312 km, 30.4° (Epoch: 22 September)

Event Time Altitude Azimuth Distance (km) Brightness Sun altitude
Rises 20:53:27 0° 246° (WSW) 4,190 6.3 -10.9°
Reaches altitude 10° 20:56:36 10° 242° (WSW) 3,144 5.5 -11.5°
Maximum altitude 21:04:13 56° 167° (SSE) 1,242 2.8 -12.8°
Enters shadow 21:10:03 12° 92° (E) 2,456 4.1 -13.7°
